Conejos, Valles Caldera, New Mexico Weather observations

Data are for 10 minute period ending at time listed.
 Day   Time   Solar   Ave.   Ave.  Ave.  Vector  Max.   Baro.   Total    
  of    of     Rad.   Air    Rel.  Wind   Wind   Wind  Press.  Precip.   
Year   Day            Temp.  Hum.  Speed  Dir.   Gust                    
2014   (MST)  Kw/m2    F      %     mph   deg.    mph    mb.     in.     
-------------------------------------------------------------------------
 355   19:30   0.00   33.9    73    5.6   320    10.2   99999.0    0.00 
 355   19:40   0.00   34.0    73    4.8   322     9.3   99999.0    0.00 
 355   19:50   0.00   33.9    74    4.0   314     9.0   99999.0    0.00 
 355   20:00   0.00   34.2    73    4.2   315     8.4   99999.0    0.00 
 355   20:10   0.00   34.2    73    4.1   308     8.4   99999.0    0.00 
 355   20:20   0.00   33.9    74    2.8   316     5.4   99999.0    0.00 
 355   20:30   0.00   33.8    73    2.8   321     6.6   99999.0    0.00 
 355   20:40   0.00   34.1    72    3.9   319     8.4   99999.0    0.00 
 355   20:50   0.00   33.4    75    3.4   324     7.2   99999.0    0.00 
 355   21:00   0.00   33.9    73    4.1   311     9.0   99999.0    0.00 
 355   21:10   0.00   34.0    73    3.8   314     9.6   99999.0    0.00 
 355   21:20   0.00   34.1    73    4.0   310    10.8   99999.0    0.00 
 355   21:30   0.00   33.8    74    3.5   348     6.6   99999.0    0.00 
 355   21:40   0.00   33.6    75    4.6   338    11.9   99999.0    0.00 
 355   21:50   0.00   33.6    75    5.1   332     8.4   99999.0    0.00 
 355   22:00   0.00   33.5    76    5.3   331    11.3   99999.0    0.00 
 355   22:10   0.00   33.3    77    5.8   322    12.5   99999.0    0.00 
 355   22:20   0.00   33.2    78    6.4   338    13.1   99999.0    0.00 
 355   22:30   0.00   33.2    78    6.3   322    10.8   99999.0    0.00 
 355   22:40   0.00   33.2    79    5.4   331    10.2   99999.0    0.00 
 355   22:50   0.00   33.2    79    5.3   325     9.6   99999.0    0.00 
 355   23:00   0.00   33.3    79    5.7   320    10.2   99999.0    0.00 
 355   23:10   0.00   33.5    79    5.2   320    12.5   99999.0    0.00 
 355   23:20   0.00   33.5    79    6.1   327    14.3   99999.0    0.00 
 355   23:30   0.00   33.5    79    6.3   343    11.3   99999.0    0.00 
 355   23:40   0.00   33.6    78    6.3   328    14.3   99999.0    0.00 
 355   23:50   0.00   33.5    79    6.6   351    12.5   99999.0    0.00 
 356    0:00   0.00   33.5    79    5.2   335     9.0   99999.0    0.00 
 356    0:10   0.00   33.4    79    4.0   332    13.7   99999.0    0.00 
 356    0:20   0.00   33.6    79    4.9   326     8.4   99999.0    0.00 
 356    0:30   0.00   33.6    79    5.7   324    16.1   99999.0    0.00 
 356    0:40   0.00   33.4    80    6.6   338    11.3   99999.0    0.00 
 356    0:50   0.00   33.3    80    6.8   348    13.1   99999.0    0.00 
 356    1:00   0.00   33.0    81    6.3   343    13.1   99999.0    0.00 
 356    1:10   0.00   33.2    81    5.8   342    10.2   99999.0    0.00 
 356    1:20   0.00   33.2    80    6.3   332    11.3   99999.0    0.00 
 356    1:30   0.00   33.3    80    6.2   323    14.3   99999.0    0.00 
 356    1:40   0.00   33.2    80    5.2   327    11.3   99999.0    0.00 
 356    1:50   0.00   33.3    80    5.7   324    18.5   99999.0    0.00 
 356    2:00   0.00   33.4    80    5.2   332    10.2   99999.0    0.00 
 356    2:10   0.00   33.4    80    5.1   317    10.2   99999.0    0.00 
 356    2:20   0.00   33.4    80    4.0   333     9.6   99999.0    0.00 
 356    2:30   0.00   33.3    80    4.2   326     9.0   99999.0    0.00 
 356    2:40   0.00   33.3    81    4.6   309     9.6   99999.0    0.00 
 356    2:50   0.00   33.3    81    4.5   328    10.2   99999.0    0.00 
 356    3:00   0.00   33.2    81    4.3   313     8.4   99999.0    0.00 
 356    3:10   0.00   33.2    80    4.0   318     9.0   99999.0    0.00 
 356    3:20   0.00   33.2    80    3.9   321     7.8   99999.0    0.00 
 356    3:30   0.00   33.3    80    4.7   320     9.0   99999.0    0.00 
 356    3:40   0.00   33.2    80    4.2   331     8.4   99999.0    0.00 
 356    3:50   0.00   33.5    78    4.5   316     8.4   99999.0    0.00 
 356    4:00   0.00   33.8    77    5.7   329     9.6   99999.0    0.00 
 356    4:10   0.00   34.4    76    6.2   323    11.9   99999.0    0.00 
 356    4:20   0.00   34.4    75    4.9   324     9.6   99999.0    0.00 
 356    4:30   0.00   34.2    76    5.2   320     9.0   99999.0    0.00 
 356    4:40   0.00   34.2    76    5.2   313    11.9   99999.0    0.00 
 356    4:50   0.00   34.4    76    5.7   315    13.7   99999.0    0.00 
 356    5:00   0.00   34.2    77    5.2   337    10.8   99999.0    0.00 
 356    5:10   0.00   34.0    78    5.5   332    13.7   99999.0    0.00 
 356    5:20   0.00   34.0    79    5.6   318    10.2   99999.0    0.00 
 356    5:30   0.00   34.1    79    5.7   309    12.5   99999.0    0.00 
 356    5:40   0.00   33.9    80    4.2   338     8.4   99999.0    0.00 
 356    5:50   0.00   33.8    80    4.6   320    10.2   99999.0    0.00 
 356    6:00   0.00   33.6    80    4.2   319    14.9   99999.0    0.00 
 356    6:10   0.00   33.6    80    4.7   316     9.6   99999.0    0.00 
 356    6:20   0.00   33.5    81    4.0   316     7.8   99999.0    0.00 
 356    6:30   0.00   33.4    81    4.3   321    10.2   99999.0    0.00 
 356    6:40   0.00   33.5    81    4.5   318     9.0   99999.0    0.00 
 356    6:50   0.00   33.5    81    4.7   316    10.8   99999.0    0.00 
 356    7:00   0.00   33.6    80    5.2   315    13.7   99999.0    0.00 
 356    7:10   0.00   33.7    80    5.4   320    16.1   99999.0    0.00 
 356    7:20   0.00   33.8    80    4.7   315     9.6   99999.0    0.00 
 356    7:30   0.00   33.7    80    4.7   317    11.3   99999.0    0.00 
 356    7:40   0.00   33.8    79    5.3   327     9.6   99999.0    0.00 
 356    7:50   0.00   33.7    80    4.7   313     8.4   99999.0    0.00 
 356    8:00   0.01   33.8    80    5.2   318    10.8   99999.0    0.00 
 356    8:10   0.01   33.9    79    4.6   321    10.8   99999.0    0.00 
 356    8:20   0.02   34.0    79    4.7   314    11.3   99999.0    0.00 
 356    8:30   0.02   33.9    79    4.8   329    11.3   99999.0    0.00 
 356    8:40   0.02   33.6    80    4.7   325     7.8   99999.0    0.00 
 356    8:50   0.05   33.8    79    5.2   325     9.6   99999.0    0.00 
 356    9:00   0.07   33.9    79    5.7   319    12.5   99999.0    0.00 
 356    9:10   0.09   34.2    78    6.2   318    12.5   99999.0    0.00 
 356    9:20   0.09   34.3    78    6.1   317    11.3   99999.0    0.00 
 356    9:30   0.12   34.5    78    5.9   318    12.5   99999.0    0.00 
 356    9:40   0.15   34.8    77    6.1   316    11.3   99999.0    0.00 
 356    9:50   0.14   35.1    76    5.6   316    11.3   99999.0    0.00 
 356   10:00   0.15   35.2    76    5.9   348    10.2   99999.0    0.00 
 356   10:10   0.12   35.3    76    5.8   346    11.3   99999.0    0.00 
 356   10:20   0.11   35.0    77    7.0   348    13.7   99999.0    0.00 
 356   10:30   0.12   35.0    77    6.7   340    15.5   99999.0    0.00 
 356   10:40   0.15   35.3    77    6.2   356    10.8   99999.0    0.00 
 356   10:50   0.25   35.6    76    5.5     3    12.5   99999.0    0.00 
 356   11:00   0.18   35.8    75    6.2   346    17.3   99999.0    0.00 
 356   11:10   0.18   35.8    75    6.7   351    13.7   99999.0    0.00 
 356   11:20   0.23   35.9    75    5.8     2    14.3   99999.0    0.00 
 356   11:30   0.29   36.3    74    5.8    22    13.7   99999.0    0.00 
 356   11:40   0.27   37.5    72    4.4    17    12.5   99999.0    0.00 
 356   11:50   0.16   37.3    72    4.4    33     9.0   99999.0    0.00 
 356   12:00   0.09   36.6    74    4.1   357    14.9   99999.0    0.00 
 356   12:10   0.09   36.1    75    4.5    21    10.8   99999.0    0.00 
 356   12:20   0.05   35.9    76    4.9     8    10.2   99999.0    0.00 
 356   12:30   0.10   36.1    75    5.1    21    14.3   99999.0    0.00 
 356   12:40   0.12   35.9    78    6.1    15    14.3   99999.0    0.00 
 356   12:50   0.08   36.0    77    5.4     8    10.8   99999.0    0.00 
 356   13:00   0.08   36.7    74    5.3    39    11.3   99999.0    0.00 
 356   13:10   0.24   37.6    72    4.6    23    11.9   99999.0    0.00 
 356   13:20   0.14   38.8    68    5.0    36    10.2   99999.0    0.00 
 356   13:30   0.06   38.3    69    5.2    13    13.1   99999.0    0.00 
 356   13:40   0.05   38.0    68    7.5   343    15.5   99999.0    0.00 
 356   13:50   0.04   37.9    67    7.8   351    14.9   99999.0    0.00 
 356   14:00   0.02   36.9    73    7.8     4    13.7   99999.0    0.00 
 356   14:10   0.10   34.6    86    7.8   344    14.9   99999.0    0.00 
 356   14:20   0.13   35.8    83    7.2   351    12.5   99999.0    0.00 
 356   14:30   0.12   36.9    78    5.9   360    10.8   99999.0    0.00 
 356   14:40   0.05   37.1    74    7.2     2    16.7   99999.0    0.00 
 356   14:50   0.11   37.7    70    6.9   359    19.1   99999.0    0.00 
 356   15:00   0.10   38.3    64    8.7   343    17.9   99999.0    0.00 
 356   15:10   0.10   38.0    64    8.0   340    23.9   99999.0    0.00 
 356   15:20   0.15   37.7    64    8.3   346    19.7   99999.0    0.00 
 356   15:30   0.11   37.0    66    9.1   354    19.1   99999.0    0.00 
 356   15:40   0.09   36.4    66   10.4   334    25.6   99999.0    0.00 
 356   15:50   0.04   35.7    66   11.6   334    23.9   99999.0    0.00 
 356   16:00   0.04   35.3    66   10.1   333    22.1   99999.0    0.00 
 356   16:10   0.04   34.8    66   11.3   326    24.5   99999.0    0.00 
 356   16:20   0.03   34.4    69    9.8   331    19.1   99999.0    0.00 
 356   16:30   0.03   34.2    68    9.6   330    16.7   99999.0    0.00 
 356   16:40   0.02   34.1    68    8.4   327    17.9   99999.0    0.00 
 356   16:50   0.01   33.8    70    9.0   332    17.3   99999.0    0.00 
 356   17:00   0.00   33.6    70    8.3   318    21.5   99999.0    0.00 
 356   17:10   0.00   33.6    70    6.6   327    15.5   99999.0    0.00 
 356   17:20   0.00   33.5    70    6.1   331    14.9   99999.0    0.00 
 356   17:30   0.00   33.4    69    6.0   326    16.1   99999.0    0.00 
 356   17:40   0.00   33.4    68    6.5   346    16.1   99999.0    0.00 
 356   17:50   0.00   33.4    68    7.2   328    19.1   99999.0    0.00 
 356   18:00   0.00   33.3    68    5.8   320    15.5   99999.0    0.00 
 356   18:10   0.00   33.3    68    5.3   315    10.8   99999.0    0.00 
 356   18:20   0.00   33.1    68    5.7   331    14.3   99999.0    0.00 
 356   18:30   0.00   33.0    68    7.9   321    23.3   99999.0    0.00 
 356   18:40   0.00   32.9    67    5.6   328    16.1   99999.0    0.00 
 356   18:50   0.00   32.7    67    6.9   316    14.9   99999.0    0.00 
 356   19:00   0.00   32.6    66    6.3   320    13.7   99999.0    0.00 
 356   19:10   0.00   32.5    67    7.3   323    17.9   99999.0    0.00 
 356   19:20   0.00   32.4    68    6.2   330    15.5   99999.0    0.00 

Return to Conejos, Valles Caldera graphs page.


Western Regional Climate Center,wrcc@dri.edu